Showing default

HULIANWANG DIGUI-05, 62327

Orbit data source: Space-Track

HULIANWANG DIGUI-05, 62327 is a payload satellite owned by Zhongguo Xingwang (CN) in LEO that was launched on Mon, 16 Dec 2024 UTC via a CHANG ZHENG 5B/YZ-2 launch vehicle from the Wenchang Satellite Launch Center (WSC). Payload-class satellites include a variety of spacecraft equipped with specific instruments for various scientific and technological missions. These include communications satellites like Starlink; space stations such as the ISS; scientific satellites like the Hubble; Earth observation satellites from companies like Planet Labs, Umbra, and HawkEye 360; GPS; miniature CubeSats for education and research; and military/defense satellites.

Loading next visibility...
Identifier
62327, 2024-240E
Orbit
LEO
Country
Flag of CNCN / PRC
Related business
Manufacturer
CAST?
Mission
Operational Civil Communications
Bus & Motor
XINGWANG CL, Unknown motor
Mass
~800 kg wet, ~800 kg dry
Launch date (UTC)
2024-12-16 (1 year ago)
Launch vehicle
CHANG ZHENG 5B/YZ-2
Launch site
Wenchang Satellite Launch Center (WSC)
Object type
Payload
Rocket body
Debris
Shape & HBR
Box + 2 Pan, 5.0 m
Radar Cross Section
5.935 m², Large (>1 m²)

Expand to show TLE details & history
Last TLE update: 5 hours ago

TLE from 5 hours ago
0 HULIANWANG DIGUI-05
1 62327U 24240E   26061.83039824  .00000059  00000-0  10285-3 0  9997
2 62327  86.5068  19.2635 0002085  85.4203 274.7169 13.24420814 58567
Epoch: 2026-03-02T19:55Z
TLE epoch observation values (Epoch: 2026-03-02T19:55:46.407Z)
Latitude
-0.00007°
Longitude
-80.29805°
Altitude
1,170.646 km
Speed
7.268 km/s
True Right ascension
01h 17m 03s
True Declination
0° 00' 00"
Sunlit
Object was in daylight at epoch
Visualization orbit readout
Latitude
Unknown
Longitude
Unknown
Altitude
Unknown
Speed
Unknown
Apparent Right ascension
Unknown
Apparent Declination
Unknown
Sunlit
N/A
Visualization observer readout
Local Sidereal Time
04:49:38
Azimuth
Unknown
Elevation
Unknown
Doppler factor
Unknown
Orbital elements
Apogee altitude
1,166.574 km
Perigee altitude
1,163.428 km
Semi-major axis
7,543.138 km
Eccentricity
0.00021
Inclination
86.5068°
RAAN
19.2635°
Arg. of periapsis
85.4203°
True anomaly
274.69309°
Mean anomaly
274.7169°
Eccentric anomaly
274.70499°
Mean motion
3.31295 °/min
Orbital period
108.66 mins
BSTAR
0.00010285
Loading maneuver chart data...
Computing Atmospheric mass density...
Loading historical data...
Loading historical data...
Loading historical data...
Loading historical data...
Loading historical data...
Loading historical data...
Loading historical data...

Documentation

Showing up to 5 results
|